Theta_e
313 313 313 314 314 315 315 314 314 315 315 314 315 315 314 315 315 314 314 315 312 310 309 309 308 308 308 309 310 310 311 311 311 311 312 314 317 318 318 320 320 320 319 318
313 314 314 315 315 314 314 314 313 315 315 313 313 313 313 313 313 314 314 313 310 308 308 306 306 307 306 306 307 308 308 309 308 310 312 313 314 314 316 316 316 317 317 316
315 317 316 316 315 315 315 315 315 314 313 312 311 312 313 315 314 311 310 308 307 306 304 303 304 305 307 306 304 306 307 307 307 307 309 309 311 312 313 313 312 312 313 314
317 312 313 313 313 314 314 314 313 313 312 312 311 311 314 314 310 309 308 306 305 304 303 303 303 304 304 306 307 306 306 306 306 306 306 306 307 307 306 306 306 306 306 308
315 312 312 313 313 313 314 311 312 311 311 312 312 312 314 314 311 309 307 305 304 303 303 303 304 304 305 306 306 306 306 307 305 305 305 304 304 305 305 305 305 305 304 304
312 311 311 314 313 312 311 310 310 310 311 314 318 318 316 312 311 308 306 305 304 302 302 302 303 304 304 305 305 305 305 304 303 303 303 304 303 302 302 303 303 303 302 302
314 312 312 314 314 311 310 311 316 318 315 317 316 317 318 311 310 308 306 304 303 301 300 299 299 300 301 302 302 302 302 303 303 303 303 302 302 302 302 302 301 300 300 300
318 316 314 310 313 313 311 314 318 319 319 317 314 316 318 309 308 307 305 304 302 300 299 298 297 297 298 298 298 299 299 299 300 300 301 300 300 299 298 299 300 300 300 300
315 316 309 309 309 310 313 315 313 318 315 319 316 314 310 308 307 306 305 302 300 299 298 298 297 296 296 296 296 296 296 296 296 295 296 297 298 299 299 298 297 297 297 298
315 317 316 310 309 308 309 308 314 314 316 310 312 312 313 311 309 306 303 301 300 298 297 296 295 294 293 292 291 291 290 289 289 289 290 291 291 293 294 295 295 296 294 293
315 316 314 314 312 314 310 311 309 310 312 314 314 311 309 309 307 303 300 299 298 297 296 295 294 293 292 290 289 289 288 288 288 287 287 287 288 288 289 289 290 291 291 290
313 314 313 312 310 309 310 311 311 313 314 310 312 312 304 303 301 301 301 299 297 296 293 292 292 291 290 289 288 288 287 287 287 286 286 286 286 285 285 286 286 286 286 287
312 311 310 308 307 310 311 310 310 311 310 312 314 313 307 302 301 302 303 300 297 295 292 291 291 290 289 289 288 288 288 287 287 287 287 287 286 286 286 286 286 286 286 286
308 310 307 305 306 307 306 306 306 306 310 308 308 307 305 304 303 302 303 302 296 294 293 291 290 289 288 288 289 289 288 288 287 287 287 287 287 287 286 286 286 286 286 286
307 306 306 306 306 304 303 303 305 305 304 304 303 302 303 303 300 296 294 293 293 293 293 292 291 290 289 289 289 289 289 289 289 288 288 287 287 287 287 286 286 286 286 286
302 297 299 295 301 302 302 301 301 301 301 301 301 301 301 297 296 296 295 293 292 291 291 291 290 289 289 289 289 288 288 288 288 288 288 288 288 287 286 286 286 286 285 285
300 297 292 292 299 297 293 297 299 299 299 299 298 298 293 295 294 293 292 292 292 292 291 290 290 290 289 289 289 288 288 287 286 286 287 287 287 286 285 285 285 285 284 284
298 295 294 290 290 291 295 297 295 294 294 293 292 291 291 292 292 291 291 292 292 291 291 290 290 289 289 289 289 287 287 286 285 284 284 283 282 283 283 284 283 283 282 282
297 297 293 290 289 294 295 294 294 294 292 293 293 293 293 291 291 291 292 291 291 290 290 290 290 289 289 289 287 286 285 284 283 282 281 280 279 279 279 279 279 279 278 279
292 294 294 286 289 287 292 291 292 292 289 290 294 290 291 291 287 288 291 291 290 290 290 290 289 289 289 287 286 285 284 282 281 280 279 278 277 276 276 276 275 275 274 275
287 287 292 293 294 291 293 291 292 288 290 294 295 292 291 289 291 291 291 291 290 290 290 289 289 288 287 286 285 283 281 280 279 279 278 278 277 275 274 273 273 272 271 270
290 287 286 285 286 290 293 291 291 292 293 292 293 291 292 291 291 291 291 290 290 289 289 289 288 287 286 285 283 282 281 279 278 278 277 277 276 275 273 271 270 268 267 267
288 289 287 289 288 292 292 292 292 292 292 292 292 292 291 291 291 290 290 290 289 289 288 287 287 287 285 282 281 281 280 279 278 277 275 274 273 272 270 268 267 266 266 265
291 292 289 290 290 291 291 291 292 291 291 291 291 291 290 290 290 290 290 289 288 287 287 286 286 284 282 281 281 279 278 277 277 275 274 272 270 269 268 267 266 265 265 264
291 291 289 290 291 291 292 292 291 291 291 291 291 291 290 290 290 289 288 288 287 287 285 285 283 281 281 280 279 278 277 275 275 273 272 271 269 267 267 266 266 265 265 265
292 291 291 291 291 291 291 291 291 291 291 291 290 290 290 290 289 287 286 286 286 285 283 281 281 281 280 280 279 277 275 274 273 272 271 269 266 266 266 265 265 267 266 267
Wind_Speed
8 3 6 10 11 11 4 8 11 11 10 12 13 11 12 21 25 28 27 21 26 25 15 16 16 14 11 6 5 8 10 7 11 14 14 19 23 22 24 26 27 28 31 34
3 6 11 7 7 8 8 10 11 8 7 8 10 13 17 20 17 14 15 25 27 23 19 19 20 23 25 23 19 12 7 5 2 7 7 9 8 11 15 17 22 26 27 31
10 7 12 8 8 10 11 9 9 7 7 8 8 7 8 8 11 27 31 28 27 23 19 20 23 24 23 26 26 22 17 11 4 4 7 8 11 13 12 15 18 21 24 29
7 3 1 4 7 6 8 7 3 6 5 3 7 5 4 14 14 15 21 24 21 18 17 19 22 25 27 26 24 24 21 18 15 10 4 1 2 3 5 4 12 16 16 20
2 7 6 6 6 2 6 2 3 5 5 5 7 4 5 7 11 10 14 18 16 15 15 19 20 22 23 23 23 21 20 19 18 14 11 7 5 3 4 8 8 11 15 18
9 1 3 5 6 2 5 3 8 8 4 2 1 1 4 3 11 6 13 14 12 12 14 15 15 16 18 17 17 18 18 19 18 17 16 15 12 9 6 3 6 10 12 14
5 8 5 5 2 4 3 4 4 2 1 5 7 3 4 5 5 14 16 16 12 11 12 14 14 14 14 15 15 15 15 16 15 15 15 15 14 12 12 10 8 9 10 12
4 3 1 2 2 2 6 2 3 5 3 3 7 5 5 6 18 23 22 17 13 12 11 11 12 14 15 16 16 15 15 15 16 15 15 13 13 13 12 12 12 13 12 11
2 4 4 4 3 1 2 3 2 2 1 1 5 6 2 9 9 16 18 16 13 10 9 9 11 12 11 11 11 11 13 14 15 12 12 12 13 14 16 17 16 14 14 16
3 4 2 3 2 2 2 1 2 2 3 5 6 4 7 5 11 9 10 13 10 7 6 5 5 5 6 7 8 10 12 15 16 16 14 12 12 13 14 17 18 19 20 20
5 0 2 0 4 4 0 2 2 1 3 4 8 6 7 9 8 10 10 6 3 3 4 3 2 2 3 5 7 10 13 14 16 17 17 18 20 20 18 16 16 18 20 24
5 3 4 8 7 8 5 7 8 7 6 4 11 15 10 11 10 12 5 6 7 3 3 3 3 4 5 8 10 12 15 16 18 19 20 21 24 24 24 23 22 21 19 20
3 2 2 7 3 5 5 1 1 5 1 6 8 4 6 14 12 11 16 11 7 7 2 2 3 5 7 10 13 15 17 20 21 23 24 25 27 28 29 30 30 31 31 30
4 2 5 6 8 9 5 8 8 3 5 9 14 18 22 17 9 8 8 11 10 7 3 3 4 6 8 12 16 19 22 24 26 27 29 31 33 34 36 37 38 39 39 39
1 5 4 10 11 8 5 11 18 13 15 12 24 22 23 17 8 6 5 4 1 3 6 8 11 13 13 13 15 19 20 23 26 28 30 31 34 36 39 41 42 42 43 45
2 3 4 6 5 10 14 21 17 19 19 20 20 23 16 7 4 3 2 4 0 3 4 8 13 14 16 17 17 19 21 24 27 31 34 37 39 40 41 41 42 44 46 48
6 4 2 6 1 4 7 16 19 18 19 19 18 15 1 2 2 5 5 4 8 10 8 9 12 16 14 13 15 19 22 23 27 31 34 37 39 42 42 43 45 46 49 51
5 5 3 4 4 3 10 2 2 5 8 5 5 3 5 3 2 3 4 11 11 6 9 12 14 15 18 22 25 25 26 26 32 34 37 39 39 41 43 47 51 55 57 60
14 7 2 3 6 9 16 7 2 2 8 1 3 7 10 2 8 10 3 9 15 19 17 16 17 17 19 21 25 24 29 32 35 37 38 39 39 42 46 49 52 56 57 61
2 8 6 2 5 8 3 4 6 4 6 10 10 6 4 3 1 5 14 19 19 17 15 16 18 21 23 23 27 30 33 35 37 39 41 45 46 47 49 51 54 56 55 57
3 1 11 13 8 6 3 10 7 4 10 6 13 16 7 4 12 25 25 20 17 15 18 21 22 23 25 27 30 33 35 37 41 46 50 51 51 51 51 52 52 53 55 55
6 6 5 2 2 7 3 6 6 4 1 5 14 14 14 25 27 23 24 24 16 19 23 24 26 26 28 30 34 36 40 45 47 49 50 52 53 53 54 52 52 49 47 47
2 7 4 7 5 2 10 9 11 13 16 16 19 25 32 28 29 26 22 20 20 22 23 25 26 28 29 31 35 40 45 47 49 49 50 51 52 52 49 46 45 44 42 41
5 15 3 3 7 17 32 30 33 33 31 29 28 28 31 29 27 26 26 25 23 22 24 24 26 28 30 32 37 41 43 44 46 48 50 50 50 48 44 42 42 42 42 41
11 3 8 9 11 24 30 33 35 35 37 36 34 30 30 31 29 27 26 23 23 23 23 23 25 27 31 35 39 40 39 41 43 45 46 47 45 42 42 40 39 38 40 40
24 18 11 12 24 21 24 32 31 28 28 27 26 28 32 31 27 25 23 22 22 23 22 23 24 28 32 37 39 37 36 38 41 44 44 42 41 42 41 43 44 39 36 36
Wind_Direction
187 209 209 230 239 260 318 314 302 300 303 289 280 305 314 290 272 291 293 284 96 81 68 61 65 66 77 96 162 195 207 222 249 261 249 239 238 247 250 248 249 248 255 259
135 227 239 279 329 308 292 289 286 277 300 349 321 301 284 282 270 287 58 72 84 74 63 59 64 66 64 66 71 87 120 165 184 206 250 239 242 245 254 262 254 250 252 257
214 257 331 302 293 274 271 264 293 323 340 291 303 276 259 284 71 78 72 71 67 65 58 48 51 59 68 58 53 56 61 71 86 172 225 237 229 240 239 251 258 262 253 253
253 106 176 258 259 259 290 279 354 307 341 257 38 282 331 275 89 77 71 70 68 70 68 56 53 56 60 64 58 51 53 53 51 51 53 14 245 245 247 260 288 290 276 266
213 165 184 223 230 201 232 88 250 241 233 299 249 254 245 200 120 104 88 82 76 70 68 67 62 62 57 55 54 55 50 49 48 47 45 40 27 326 286 236 254 271 284 288
259 93 229 215 225 237 4 300 261 251 218 263 51 311 325 59 145 118 109 102 96 85 74 66 57 51 51 50 52 48 46 50 49 47 47 44 39 21 23 13 284 292 294 299
192 206 237 212 239 130 112 299 307 286 135 208 63 13 236 115 129 149 132 119 100 77 55 42 37 37 38 38 38 39 37 38 34 35 38 39 37 30 25 20 355 333 319 315
240 316 101 113 244 31 184 265 169 267 311 304 8 254 245 129 90 105 115 113 99 77 57 43 32 26 24 21 24 27 32 33 30 23 22 22 20 28 26 25 21 9 345 322
277 217 166 152 71 14 103 208 12 89 15 221 232 279 10 102 105 115 115 100 85 74 61 47 20 18 12 13 14 18 24 24 25 26 24 17 10 8 3 4 4 4 354 346
36 296 24 72 106 251 209 354 41 57 237 242 253 281 264 176 151 118 95 88 83 80 65 57 54 31 16 18 16 16 21 24 23 17 18 18 21 19 8 359 353 352 349 345
103 182 249 269 178 194 255 232 195 154 216 252 273 263 69 54 94 97 88 95 141 166 183 195 142 112 357 18 20 8 9 8 16 9 8 5 6 4 5 358 348 342 340 337
177 189 236 240 301 313 263 269 271 253 258 244 254 258 112 99 101 125 166 220 233 230 160 102 30 20 6 358 0 3 359 354 359 358 0 359 358 355 355 350 346 342 338 327
114 218 265 316 277 45 77 242 222 281 253 237 269 262 136 145 160 191 236 231 233 225 172 69 42 342 341 341 346 348 346 342 340 339 342 340 339 337 334 333 332 330 329 332
63 184 185 224 264 333 296 294 272 166 274 289 271 285 290 293 315 337 227 237 201 215 238 293 301 316 326 331 337 338 339 337 333 333 331 330 329 327 325 324 324 323 322 322
5 247 220 255 272 300 290 275 272 270 259 255 272 280 276 290 317 109 125 136 170 257 257 256 272 293 296 303 322 329 328 330 329 328 325 323 321 319 317 316 316 315 315 315
92 265 33 284 260 263 267 262 267 267 264 264 265 267 284 341 84 179 173 153 335 319 299 278 267 265 267 270 283 302 309 314 318 321 323 321 318 316 313 311 310 309 309 309
168 160 145 255 65 356 301 249 247 254 260 264 268 273 13 271 107 70 45 325 289 288 291 303 304 290 275 280 276 280 290 297 306 310 313 314 312 310 309 308 306 305 303 301
196 149 161 248 56 246 249 79 336 252 260 272 281 164 178 153 342 330 299 278 281 288 301 292 299 297 280 279 283 285 291 295 305 309 313 313 310 307 306 304 303 302 301 299
219 208 243 201 207 283 300 297 306 126 278 179 208 190 188 23 322 285 294 329 323 311 301 299 295 290 282 283 291 292 295 308 313 314 312 310 306 302 300 298 297 296 295 294
223 212 196 186 205 220 232 143 112 110 270 239 215 171 127 15 5 270 304 299 299 292 290 289 288 287 293 299 300 305 311 314 315 313 309 307 304 299 297 295 294 292 288 286
119 316 214 230 245 270 235 142 130 124 267 188 200 183 230 211 263 293 293 285 287 282 280 279 285 297 301 306 310 315 316 317 316 313 311 309 308 307 304 301 300 298 296 294
156 165 215 174 224 280 142 123 171 219 339 239 202 226 259 299 297 293 283 281 275 271 275 284 296 304 311 314 316 317 318 318 316 313 311 311 310 310 310 309 307 306 303 298
257 202 196 174 203 190 209 229 238 275 275 261 253 267 285 291 290 287 282 268 269 277 286 292 299 306 311 314 317 317 317 317 315 314 315 315 315 315 315 314 313 311 307 298
231 234 216 282 246 259 268 265 268 277 284 281 280 280 285 285 283 275 269 268 275 284 289 294 302 307 311 315 317 318 318 317 317 317 318 320 321 321 318 316 313 308 301 295
215 133 231 255 251 257 265 267 270 273 274 277 279 280 285 279 274 268 265 270 276 285 287 296 302 306 312 315 317 320 321 319 319 319 323 324 321 319 318 317 314 306 301 297
230 234 238 250 255 254 267 277 277 267 275 279 282 286 286 276 269 265 263 268 274 279 288 295 301 307 313 316 319 323 321 321 322 325 325 321 325 325 321 318 317 319 303 299